SEIBRANZ Weather Reports


time (UTC)temp
C
wind
direction
speed
KPH
gust
KPH
rain 1hr
cm
rain 24hr
cm
rain mn
cm
humidity
%
barometer
mb
20260506120210 15 42 11.3 0.0 0.00 0.00 0.00 69 1004.4
20260506113217 14 65 16.1 0.0 0.00 0.00 0.00 70 1004.3
20260506110210 15 96 14.5 0.0 0.00 0.00 0.00 68 1004.7
20260506100213 13 67 12.9 0.0 0.00 0.00 0.00 73 1005.1
20260506093211 13 135 11.3 0.0 0.00 0.00 0.00 73 1005.5
20260506090211 13 5 1.6 0.0 0.00 0.00 0.00 71 1005.5
20260506083211 13 5 6.4 0.0 0.00 0.00 0.00 77 1005.1
20260506080212 12 248 3.2 0.0 0.00 0.00 0.00 80 1005.4
20260506073211 11 249 6.4 0.0 0.00 0.00 0.00 86 1005.2
20260506070212 11 238 4.8 0.0 0.00 0.00 0.00 86 1005.7
20260506060210 10 196 1.6 0.0 0.00 0.00 0.00 92 1005.5
20260506050211 7 169 3.2 0.0 0.00 0.00 0.00 93 1005.8
20260506043211 6 185 3.2 0.0 0.00 0.00 0.00 93 1006.1
20260506040211 7 225 6.4 0.0 0.00 0.00 0.00 93 1006.4
20260506033211 6 192 4.8 0.0 0.00 0.00 0.00 92 1006.6
20260506030212 7 211 8.0 0.0 0.00 0.00 0.00 92 1007.0
20260506023211 7 203 8.0 0.0 0.00 0.00 0.00 92 1007.1
20260506020212 7 236 4.8 0.0 0.00 0.00 0.00 91 1007.3
20260506013211 7 233 6.4 0.0 0.00 0.00 0.00 92 1007.5
20260506010213 8 222 11.3 0.0 0.00 0.00 0.00 90 1007.8
20260506003209 8 182 9.7 0.0 0.00 0.00 0.00 91 1007.8
20260506000211 8 211 8.0 0.0 0.00 0.00 0.00 91 1008.0
20260505233209 8 188 12.9 0.0 0.00 0.00 0.00 92 1008.4
20260505230209 8 196 12.9 0.0 0.00 0.00 0.00 91 1008.5
20260505223210 9 205 17.7 0.0 0.00 0.00 0.00 91 1008.7
20260505213211 8 179 16.1 0.0 0.00 0.00 0.23 92 1008.7
20260505210215 8 180 16.1 0.0 0.00 0.00 0.23 92 1008.8
20260505203209 9 177 14.5 0.0 0.00 0.00 0.23 91 1008.7
20260505200210 10 205 14.5 0.0 0.00 0.00 0.23 91 1008.8
20260505193209 10 210 24.1 0.0 0.00 0.00 0.13 87 1008.6
20260505190215 12 215 32.2 0.0 0.00 0.00 0.05 83 1008.0
20260505183212 12 232 17.7 0.0 0.00 0.00 0.05 87 1007.1
20260505180211 12 177 12.9 0.0 0.00 0.00 0.05 87 1007.0
20260505173210 13 211 16.1 0.0 0.00 0.00 0.05 84 1006.9
20260505170210 14 234 4.8 0.0 0.00 0.00 0.05 79 1006.3
20260505163211 14 17 8.0 0.0 0.00 0.00 0.05 82 1006.0
20260505153210 15 270 14.5 0.0 0.00 0.00 0.03 75 1006.7
20260505150216 16 312 11.3 0.0 0.00 0.00 0.03 68 1006.4
20260505140210 15 293 19.3 0.0 0.00 0.00 0.03 68 1006.4
20260505130210 15 274 11.3 0.0 0.00 0.00 0.03 81 1006.6
20260505123210 14 317 11.3 0.0 0.00 0.00 0.03 85 1006.6